{"data":{"norad_id":40878,"epoch":"2026-09-20T04:57:13.088736Z","epoch_age_seconds":39809,"freshness":"FRESH","line1":"1 40878U 15040A   26263.20640149 -.00000255  00000+0 -56005-3 0  9994","line2":"2 40878 100.1281 245.5060 0008381   0.6665 359.4458 13.16074180530161","mean_motion":13.1607418,"eccentricity":0.0008381,"inclination_deg":100.1281,"raan_deg":245.506,"arg_perigee_deg":0.6665,"mean_anomaly_deg":359.4458,"bstar":-0.00056005,"rev_number":53016,"period_min":109.41632484576,"perigee_km":1193.4013657183,"apogee_km":1206.1034239219,"semimajor_km":7577.8893948201,"source":"CELESTRAK","updated_at":"2026-09-20T09:00:33.964588Z"}}